Back to catalog

FENGYUN 1C DEB

AliveSSO
NORAD 31667·DEBRIS·🇨🇳 China

Launched May 10, 1999 from Taiyuan Satellite Launch Center

Loading…

Next Passes (next 24 hours)

TLE

FreshSource: Space-Track

Epoch: Sep 13, 2026, 10:09 UTC

1 31667U 99025CBZ 26256.42325939  .00000303  00000-0  15119-3 0  9992
2 31667  99.0526 121.9604 0051506  21.0745 339.2539 14.23780359599015

Track FENGYUN 1C DEB in real time with AllMySat

Download on the App Store